一网星座-0528星 (ONEWEB-0528 )

导读

ONEWEB-0528是一颗由英国发射的低轨互联网卫星,隶属于OneWeb卫星星座项目,发射于2022年12月8日。该卫星承担全球宽带互联网覆盖服务任务,旨在为偏远地区、海上以及航空等场景提供高速网络连接,推进全球网络基础设施普及,助力缩小数字鸿沟,是OneWeb构建全球低轨卫星通信网络的组成单元之一。

Basic Information
目录编号:
54643
目录名称:
ONEWEB-0528
国际标识:
2022-166B
轨道中心:
EARTH
卫星名称:
一网星座-0528星
卫星全名:
一网星座-0528星 (ONEWEB-0528 )
卫星状态:
在轨 (已飞行1374 天)
发射日期:
2022-12-08 UTC
国别 :
英国 (GB)
星等 :
--
This satellite is enrolled in the Space Conjunction Data Service (SCDS) and the current flight risk assessment level is: No High Risk
Orbit Information
数据来源 国际轨道数据 AOE轨道数据
星历时间 2026-09-11T19:18:48+0800
19小时前
查看轨道信息
2026-09-10T17:00:00+0800
1天前
查看轨道信息
半长轴 7555.891km 7555.891km
偏心率 0.0002121 0.0002265
轨道倾角 87.926° 87.928°
近地点辐角 76.236° 74.530°
升交点赤经 226.821° 227.040°
平近点角 283.901° 111.360°
近地点 1176.151km 1176.042km
远地点 1179.357km 1179.466km
周期 108.940分钟 108.940分钟
每日圈数 13.218259 13.218259
Detailed Information
平衡模式:
三轴稳定
覆盖范围:
全球
运营商:
一网卫星公司
运营商所在国:
英国
制造商(研发单位):
一网卫星公司
制造商所在国:
英国
使用方式:
暂无
Satellite Introduction
OneWeb卫星网络由648颗重约125公斤的微型卫星组成,运行在1200公里的轨道上。 每颗卫星都能够提供至少每秒8千兆位的吞吐量,以使用其高吞吐量的Ku频段有效载荷为家庭和移动平台提供互联网接入。该卫星仍在工作。
2D Orbit Map
3D Orbit Map
Orbit Altitude Analysis Chart
Orbit Inclination Analysis Chart
Orbit Comprehensive Analysis Chart
View Comprehensive Chart
Miss Distance Evolution Trend with All Objects
Collision Probability Evolution Trend with All Objects